Location: Clanezzo
(45.7500°N, 9.6000°E)
Time: 03:46:04
(UTC+00:00)

Okean 1 - Pass Details

Date: 12 May 2021
Orbit: 537 x 555 km, 82.5° (Epoch: 18 June)

Event Time Altitude Azimuth Distance (km) Brightness Sun altitude
Exits shadow 22:24:09 53° 293° (WNW) 675 3.8 -24.7°
Drops below altitude 10° 22:27:54 10° 0° (N) 1,824 7.0 -24.9°
Sets 22:30:07 0° 5° (N) 2,718 8.1 -25.0°
